Find Starlink 2531

NORAD ID: 48483 Int'l Des: 2021-040 Owner: SPXS Country: US Constellation: starlink operational
LEOCIRCULAR

リアルタイム位置

3D地球を読み込み中...

Starlink 2531について

説明を読み込み中...

次回通過

Passes for default location (London). Set your location on the main map for personalized predictions.

高度履歴

Loading altitude history...

軌道要素

1 48483U 21040BH 26106.00002315 -.00013427 00000-0 -42156-3 0 9990
2 48483 53.1614 20.7344 0001546 83.4706 228.0960 15.31708039 5877
Epoch: Apr 16, 2026 • Age: 10 hours

現在のステータス

高度 472.5 km
速度 7.63 km/s
衛星直下点 -5.28°S, 26.69°E
打ち上げ日 May 9, 2021
運用期間 4.9 years
タイプ internet

技術仕様

分類 Payload
質量 260.00 kg
乾燥質量 248.00 kg
総質量 260.00 kg
長さ 0.20 m
直径 2.80 m
スパン 9.00 m
形状 Box + pan
製造者 SPXS
バスタイプ Starlink
フェーズステータス In Orbit
所有者/国 SPXS/US

Most Searched